Wind_Speed
19 20 22 24 27 29 30 32 33 34 33 33 33 33 34 34 33 33 32 32 31 31 30 30 31 31 31 31 31 31 31 31 31 31 32 32 34 35 37 39 40 42 43 45 46 47 48 48 48 48 47 47 46 46 46 46 45 45 45 45 46 46 47 47 48 50 51 53 54 55 57 58 59 61 62 63 64 65 66 67 67 67 68 69 69 69 67
20 22 24 26 28 29 30 31 31 31 31 31 32 32 32 32 31 30 30 30 30 30 31 31 31 31 31 30 30 30 30 30 30 30 32 33 35 37 38 40 42 44 46 47 48 49 49 49 48 47 47 46 45 44 44 44 44 44 44 44 45 46 47 48 49 50 51 52 53 54 55 57 58 60 61 63 64 65 66 68 68 69 69 70 70 70 69
21 24 25 27 28 29 30 30 29 29 30 30 31 30 29 29 29 28 29 30 30 31 31 31 30 30 29 29 28 28 28 29 30 31 33 34 36 38 40 42 44 46 47 48 48 49 48 48 48 47 47 46 46 46 45 45 46 46 46 46 47 48 48 49 49 49 50 50 51 52 53 54 56 58 59 61 61 62 64 65 67 67 67 68 68 67 68
23 24 25 26 28 28 28 28 28 28 29 29 28 28 27 28 28 29 30 30 30 30 29 29 29 28 28 27 27 28 29 30 31 33 34 36 38 40 42 44 45 46 46 47 47 48 48 48 48 48 47 47 47 47 47 46 46 46 46 46 46 46 46 47 47 48 48 49 51 51 52 53 54 55 57 59 59 59 60 63 65 64 64 65 66 65 65
23 24 25 26 27 27 27 27 27 28 27 26 26 26 26 28 29 29 29 29 28 28 28 28 28 27 27 27 28 29 30 31 33 34 36 38 40 42 43 44 44 45 45 46 47 47 47 47 47 47 46 46 46 45 45 44 44 44 43 43 43 42 43 44 44 45 46 47 48 49 50 51 52 54 55 57 57 57 58 60 62 63 62 62 63 63 62
23 24 25 26 26 26 26 27 27 26 25 24 24 26 27 27 28 27 27 27 27 28 28 28 28 27 28 29 30 31 32 33 35 36 38 39 41 42 43 43 44 45 45 46 47 47 47 47 47 46 46 45 45 44 44 43 43 43 42 42 42 42 42 42 43 44 44 45 46 47 48 49 50 52 54 56 57 55 55 57 59 61 61 60 60 61 61
23 24 25 25 25 25 26 25 24 23 23 23 25 26 26 26 26 26 26 27 28 28 29 28 28 29 30 31 31 32 34 35 37 38 39 40 41 42 42 43 44 45 46 47 47 47 48 48 47 47 47 46 46 45 45 45 44 44 44 43 43 44 44 43 44 45 45 46 46 47 48 48 50 52 54 56 57 56 55 56 56 57 59 60 59 60 60
23 24 23 24 24 25 24 23 22 22 23 24 25 25 25 25 25 26 27 28 29 29 29 29 30 30 31 32 33 34 35 37 38 39 39 40 41 41 42 43 45 45 47 47 48 49 49 49 49 49 49 49 48 48 47 47 47 47 47 47 47 47 47 47 46 46 47 48 48 49 49 50 51 53 55 57 59 59 56 56 56 56 57 58 58 59 59
22 22 22 23 23 22 21 20 21 22 23 24 24 24 24 25 25 27 29 30 30 30 30 31 31 32 32 33 34 35 37 38 38 39 39 40 41 42 43 44 45 46 47 48 49 50 51 51 51 51 51 51 51 50 50 50 50 51 51 51 51 51 51 51 50 50 49 49 50 50 51 51 52 54 55 58 61 62 60 59 59 59 58 59 58 58 58
21 21 22 22 21 20 19 19 20 21 22 23 23 24 24 25 27 29 30 31 31 31 32 32 32 33 33 34 36 37 37 38 38 39 40 41 42 43 44 45 46 46 48 49 51 52 53 53 53 53 53 53 53 53 53 53 53 53 53 53 53 53 53 53 53 53 53 53 53 53 53 54 54 55 57 60 63 66 64 62 62 62 60 60 59 59 59
20 21 21 20 18 18 18 19 20 21 22 22 23 24 24 26 28 30 30 31 31 32 33 33 33 34 34 36 37 37 38 38 39 40 41 42 42 43 45 46 46 47 49 51 52 53 54 55 55 55 55 55 55 55 54 54 54 54 54 54 54 55 55 54 55 55 55 56 56 57 57 57 58 59 61 62 64 67 67 65 65 65 64 63 62 61 60
19 19 18 17 16 17 18 19 20 21 21 22 23 24 25 27 29 30 31 31 32 33 33 34 34 35 36 37 37 38 38 39 40 41 41 42 42 43 44 45 46 48 50 51 53 54 55 56 56 56 57 56 56 56 56 56 56 56 56 56 56 56 56 56 56 57 57 58 58 59 59 60 61 62 62 63 64 67 69 68 67 67 66 65 64 63 61
18 17 16 15 16 17 18 19 20 20 21 22 23 24 26 27 29 30 31 32 32 33 34 34 35 35 36 37 38 39 39 40 41 41 41 41 42 43 44 45 47 48 50 52 54 55 56 57 57 57 57 57 57 57 57 58 58 59 59 59 59 59 58 59 58 59 59 59 60 61 62 63 64 64 65 65 65 66 67 69 68 67 67 66 65 64 63
17 15 15 15 16 17 18 19 20 20 21 22 23 24 26 27 29 30 31 32 32 33 33 34 35 36 37 38 39 40 41 41 40 40 40 40 42 43 44 45 47 49 51 53 55 56 57 57 58 58 58 58 58 59 59 60 61 62 62 63 63 63 62 62 62 61 61 62 63 64 65 66 66 67 68 68 68 67 68 69 69 69 69 68 67 66 64
15 14 14 15 16 17 19 19 20 20 21 22 23 24 26 28 29 30 31 32 32 33 34 35 36 37 38 40 41 41 41 40 39 39 39 41 42 43 44 46 47 49 51 54 55 57 57 58 58 58 59 59 60 61 62 63 64 65 66 67 67 67 67 66 66 66 66 65 65 66 66 68 69 70 71 71 71 70 70 70 71 71 71 70 69 68 66
13 13 14 15 16 18 19 19 19 19 20 21 23 24 26 27 29 30 31 32 33 34 35 35 37 38 40 41 42 41 40 39 38 38 40 41 42 43 45 46 48 50 53 55 56 57 58 59 59 60 60 61 62 63 64 65 67 68 69 69 69 70 70 70 70 69 69 70 70 69 69 71 72 72 73 74 74 73 72 71 71 70 70 71 71 69 68
12 13 14 15 17 18 18 19 19 19 20 21 23 24 26 27 29 30 31 32 33 34 35 37 38 40 41 42 42 40 39 38 38 40 41 43 43 44 46 47 49 52 54 56 58 59 60 60 61 61 62 63 64 65 66 68 69 70 71 72 72 72 72 72 72 72 72 72 73 73 73 73 74 75 75 76 76 76 75 74 73 73 73 73 73 72 71
12 13 14 16 17 18 18 18 19 20 21 22 23 24 25 26 28 29 31 32 33 34 36 37 39 40 42 42 41 39 38 38 39 41 42 43 44 45 47 49 51 53 55 57 59 61 62 63 63 63 64 65 66 67 68 70 71 72 73 73 74 74 74 74 74 74 74 74 75 75 76 76 76 77 78 78 78 78 78 78 77 77 77 77 77 76 75
12 13 15 16 17 18 19 19 20 21 21 22 23 24 25 26 28 29 31 32 33 34 36 38 39 41 42 41 40 38 38 39 40 42 43 44 45 46 48 49 52 54 56 58 61 62 64 65 66 67 67 68 69 70 71 72 73 74 74 75 75 76 76 76 76 76 76 76 76 76 77 78 78 79 80 81 81 81 82 81 80 80 81 81 81 80 79
12 14 16 17 18 18 19 19 20 20 21 22 23 24 25 27 28 29 30 32 33 34 36 37 39 40 41 40 39 38 39 40 41 42 43 45 46 47 49 50 52 55 57 59 61 64 65 67 68 70 71 72 72 73 74 75 75 76 77 77 78 78 78 78 79 79 78 79 79 78 79 80 81 81 81 82 83 83 83 83 83 82 82 83 83 82 82
12 14 15 16 17 18 18 19 20 20 21 22 24 25 27 27 28 29 30 31 32 33 35 36 38 39 39 38 38 39 39 41 42 43 44 45 47 48 50 51 53 55 58 60 63 65 67 68 70 72 74 75 76 77 78 78 78 79 80 80 80 81 81 81 82 82 82 82 83 82 82 83 84 84 84 84 84 84 83 83 83 84 84 84 85 85 84
13 14 15 16 17 18 19 20 21 22 23 24 26 27 27 27 28 29 29 30 31 33 34 35 36 37 38 38 38 39 40 41 42 44 45 46 48 49 51 52 54 57 59 61 63 66 68 70 72 74 75 77 79 80 81 82 82 82 83 83 83 83 84 84 85 85 86 86 87 87 86 85 85 86 86 86 86 86 86 85 85 85 85 86 86 87 86
13 14 15 16 17 18 19 20 22 23 24 25 26 26 26 27 28 29 30 31 31 32 32 34 35 36 37 37 38 40 41 42 43 44 46 47 48 50 51 53 55 57 60 62 64 67 69 71 72 74 76 78 79 81 83 84 84 85 85 86 86 86 87 87 87 87 88 88 88 88 88 87 86 86 86 87 87 87 87 86 86 86 86 87 87 88 88
13 15 16 16 17 18 19 21 22 23 24 25 26 26 27 28 29 30 30 30 30 31 32 34 35 36 37 37 38 40 42 43 44 45 46 48 49 51 52 54 56 58 60 63 65 67 69 71 73 75 76 78 80 81 83 84 86 87 87 88 88 89 89 89 89 89 89 89 89 90 90 89 89 88 88 88 88 88 88 87 87 87 87 88 88 89 89
14 15 16 17 18 19 20 21 22 23 24 25 27 28 29 29 30 30 30 30 30 31 32 34 35 36 37 37 38 41 42 44 45 46 47 48 50 52 53 55 57 59 61 63 65 67 69 70 72 74 76 78 79 81 83 84 86 88 89 90 90 91 91 91 91 91 91 91 92 92 92 91 91 90 89 89 88 88 88 88 87 87 87 88 89 90 91
14 15 16 17 18 19 21 22 23 24 25 26 27 28 29 29 29 30 30 30 31 32 33 34 35 36 37 38 39 41 43 44 45 47 48 49 50 52 54 55 57 59 61 63 64 66 68 70 72 74 75 77 79 81 83 85 86 88 90 91 92 93 93 93 93 93 93 93 93 93 93 92 91 91 90 90 89 89 89 88 88 88 88 89 90 91 92
14 15 15 17 18 19 21 22 23 25 26 27 28 29 29 30 30 30 31 32 32 33 33 34 36 37 38 39 40 41 43 44 46 47 49 50 51 52 53 55 57 58 60 62 64 66 67 69 71 73 75 77 79 81 83 85 87 88 90 92 94 95 95 96 96 96 96 96 96 95 95 94 94 92 91 91 90 90 90 89 89 88 89 90 91 92 93
13 14 15 16 17 19 20 22 23 25 26 27 28 29 29 30 31 31 32 33 33 34 34 35 37 38 39 40 41 43 44 45 46 47 48 50 51 52 53 54 56 58 60 61 63 65 67 68 70 72 74 77 79 81 83 85 87 89 91 93 95 96 97 98 98 99 99 99 99 99 98 97 97 95 94 93 92 92 91 90 90 89 90 90 92 93 94
13 14 15 16 17 18 20 21 23 24 25 26 26 27 28 29 31 32 32 33 34 35 36 36 37 39 40 42 43 44 45 45 46 47 48 49 51 52 53 54 56 58 59 61 63 65 67 69 70 72 74 76 78 80 83 85 88 89 91 93 95 97 98 99 100 101 102 102 102 101 101 100 99 97 96 95 94 93 93 92 91 90 91 92 93 94 96
12 13 14 15 17 18 20 21 23 24 25 26 26 27 29 30 32 32 33 35 36 37 38 38 39 40 41 43 44 45 45 46 46 47 48 49 50 52 53 54 56 57 59 61 63 64 66 68 70 72 74 76 78 80 82 84 87 89 91 93 95 97 99 100 101 102 103 103 103 103 103 102 101 99 98 96 95 94 93 93 92 92 92 93 94 96 97
12 13 14 16 17 19 20 22 23 24 26 27 28 29 30 31 32 33 34 36 37 38 39 40 41 42 42 43 44 45 45 46 47 47 48 49 50 52 53 55 56 57 59 61 63 64 66 68 70 71 73 76 78 80 81 84 86 88 91 93 95 97 99 100 102 103 104 104 105 105 104 104 102 101 99 97 96 95 94 94 94 93 93 94 95 97 98
12 13 14 16 17 19 21 22 24 25 27 28 29 30 31 32 33 35 36 36 37 39 39 40 40 41 42 42 43 45 46 47 48 49 50 50 51 52 53 55 57 58 59 61 63 64 66 68 70 71 73 75 77 80 82 84 86 88 90 92 95 97 99 101 102 104 105 106 106 106 106 105 104 102 100 98 97 96 95 95 94 94 95 95 96 97 98
12 13 15 16 18 19 21 22 24 26 27 29 30 32 33 34 35 36 37 38 39 39 40 41 41 41 42 42 44 45 47 48 50 51 52 52 53 53 54 55 57 58 60 61 63 64 66 68 69 71 73 74 77 79 81 83 86 88 90 92 94 96 99 101 103 104 106 107 108 108 108 107 106 104 102 100 98 97 96 96 95 95 96 96 97 98 99
12 14 15 17 18 19 21 23 25 26 28 30 32 33 34 36 37 38 40 41 41 42 42 43 43 44 44 44 45 46 47 48 50 51 53 54 54 55 55 56 57 58 60 62 63 64 66 67 69 71 73 74 76 78 81 83 85 87 89 91 94 96 98 101 103 105 106 108 109 110 110 109 108 106 104 101 99 98 97 97 97 97 97 98 98 99 100
13 14 16 17 18 20 21 23 25 27 29 31 33 34 36 37 39 40 41 42 44 45 45 45 45 46 46 47 47 47 47 48 49 51 53 54 56 56 57 57 58 59 60 61 63 65 66 68 69 71 72 74 76 78 80 82 85 87 89 91 93 96 98 101 103 105 107 108 110 111 111 111 110 108 106 103 101 99 98 98 98 98 98 99 99 100 101
14 15 16 17 19 20 22 24 26 28 30 32 34 36 37 39 40 41 42 43 45 46 47 47 47 48 48 48 48 48 48 49 50 51 53 55 57 58 59 60 60 60 60 61 63 65 66 68 70 71 72 74 76 78 80 82 85 87 89 91 94 96 98 100 103 105 107 108 110 111 112 113 112 110 108 105 102 100 99 98 98 99 99 100 101 101 102
15 16 17 18 19 21 22 24 27 29 31 33 35 37 39 40 42 43 44 45 46 47 48 49 50 50 50 50 50 50 50 50 50 51 53 55 57 58 59 60 61 61 61 62 63 64 66 68 70 72 73 75 77 78 80 82 84 87 89 92 94 96 98 100 102 105 107 108 110 112 113 114 114 112 110 107 104 101 100 99 99 100 100 101 102 102 103
17 17 18 19 20 22 23 25 27 29 32 34 36 38 40 41 43 44 45 47 48 49 50 51 52 52 52 52 52 52 52 52 52 52 53 55 56 58 60 61 62 62 62 63 63 64 66 67 70 72 74 75 77 79 81 83 85 87 90 92 94 96 98 100 102 104 106 108 110 112 114 115 115 114 112 109 106 103 101 100 100 100 101 102 103 104 104
19 19 20 21 22 23 24 26 28 30 32 34 36 38 40 42 44 45 47 48 49 50 51 52 53 53 53 53 53 53 53 53 53 53 54 55 57 59 60 62 63 64 64 64 64 64 65 67 69 71 73 75 77 79 81 83 85 87 89 92 94 96 98 100 102 104 107 109 110 112 114 115 116 116 114 111 108 105 102 101 101 101 102 103 104 105 105
21 21 21 22 23 24 26 27 29 30 32 35 37 39 41 42 44 46 47 49 50 51 51 53 53 54 53 53 53 54 54 54 54 54 55 56 58 60 61 63 64 65 65 65 65 65 65 67 69 71 73 75 76 78 80 83 85 87 89 91 94 96 98 99 102 104 106 109 111 112 114 116 117 117 116 113 110 106 104 102 102 102 103 103 104 105 106
23 23 23 24 25 26 27 28 30 32 33 35 37 39 41 43 45 46 47 49 50 51 51 53 54 54 54 54 53 53 53 54 55 55 56 57 58 60 62 64 65 66 66 66 67 66 66 68 69 71 73 75 76 78 80 82 84 87 89 91 93 96 98 99 102 104 106 109 111 112 114 116 118 118 118 115 112 108 105 103 102 102 103 104 105 106 107
25 25 25 25 27 28 29 30 31 33 35 37 39 40 42 44 45 46 47 48 50 51 52 53 54 54 54 54 54 53 53 54 55 56 56 57 58 59 62 64 66 67 67 68 69 69 69 69 70 72 73 75 77 78 80 82 84 87 89 91 93 96 98 100 102 104 106 108 111 113 115 116 118 119 119 117 114 110 107 104 103 103 103 104 105 106 107
28 27 27 27 28 30 31 31 33 34 36 38 40 42 43 45 46 47 48 49 50 51 52 53 54 54 55 55 55 55 54 54 55 56 57 58 59 60 61 63 65 67 68 69 70 71 72 72 72 73 74 75 77 79 81 83 85 87 89 91 94 96 98 100 102 104 106 108 111 112 114 116 118 120 120 119 116 112 109 106 104 104 104 105 106 107 108
30 30 30 30 30 31 32 33 34 35 37 39 41 43 44 46 47 48 49 50 51 52 53 54 55 55 55 55 56 56 56 56 56 57 58 60 61 62 63 64 66 67 69 70 70 72 73 73 73 73 75 76 78 79 81 83 85 87 90 92 94 96 98 100 102 104 106 108 110 112 114 116 118 120 120 120 117 114 110 107 106 105 105 105 106 107 108
31 32 32 32 33 33 34 35 36 37 38 40 42 43 45 47 48 49 50 51 52 53 54 55 55 55 56 56 57 57 57 57 57 58 59 61 62 64 65 66 67 67 69 70 71 72 73 74 75 75 76 77 79 81 82 84 86 88 90 92 94 96 99 101 102 104 106 108 110 112 114 116 118 120 121 121 119 116 112 109 107 106 106 106 106 108 108
33 33 34 34 35 35 36 37 38 39 40 41 43 45 46 48 49 50 51 51 52 54 55 55 55 56 56 57 57 58 59 59 59 59 59 61 63 65 67 68 69 69 70 71 72 73 75 76 77 78 78 79 80 82 83 85 86 89 91 93 95 97 99 101 103 104 107 109 111 112 114 116 118 120 121 121 120 117 114 110 108 107 106 106 107 108 109
34 35 35 36 37 37 37 38 39 40 41 43 44 46 47 49 50 51 51 52 53 54 55 55 55 55 56 57 58 59 60 60 60 61 61 62 64 66 68 69 71 72 72 73 73 74 76 78 79 80 80 81 82 83 84 85 87 89 91 93 95 97 100 102 103 105 107 109 111 112 114 116 118 120 122 122 121 118 115 112 109 108 108 107 108 108 109
35 36 37 38 38 39 39 40 40 41 42 44 46 47 48 50 51 52 52 53 54 55 55 55 55 55 55 57 58 59 60 61 61 62 63 63 65 67 69 70 72 74 75 75 76 76 78 79 80 81 82 83 84 84 85 86 87 89 91 93 95 98 100 102 104 105 107 109 111 113 114 116 118 120 122 123 122 120 116 113 110 109 108 108 108 109 109
36 36 37 38 39 40 41 41 42 42 43 44 46 48 50 51 51 52 53 54 54 55 55 56 55 54 55 56 57 58 60 61 62 63 64 65 67 69 70 72 74 75 77 77 78 79 79 80 81 82 84 84 85 86 87 87 88 89 91 93 96 98 101 103 104 106 108 110 111 113 115 116 118 120 122 123 123 121 117 114 111 110 109 109 109 109 110
37 37 37 38 39 40 42 42 43 44 44 45 47 49 51 52 53 53 54 54 55 55 55 56 56 55 54 55 56 57 59 61 63 64 66 67 68 69 71 73 75 76 78 80 81 81 81 82 83 83 85 86 87 87 88 88 89 89 91 94 96 98 101 103 105 106 108 110 112 113 115 117 119 121 122 123 123 122 119 115 112 111 110 110 110 110 110
37 38 38 38 38 40 41 42 43 44 45 46 48 50 51 52 53 54 54 55 56 56 55 56 57 55 54 55 56 57 58 60 63 65 67 68 69 70 71 73 75 77 79 81 82 83 83 84 84 85 85 86 87 88 89 89 90 90 92 94 96 99 102 104 106 107 109 110 112 114 115 117 119 121 123 124 124 122 119 116 113 111 111 110 110 110 110
38 39 39 39 39 39 41 42 44 45 46 47 48 50 52 53 54 55 55 56 56 56 56 57 58 57 56 56 57 58 59 60 62 64 66 68 68 69 71 73 76 78 79 81 83 84 85 85 86 86 86 87 87 88 89 90 90 91 92 94 97 100 102 105 106 108 109 111 112 114 115 117 119 121 123 124 124 122 120 116 114 112 111 111 111 111 111
Wind_Direction
311 310 307 305 306 309 312 314 316 318 320 320 322 323 324 326 328 330 331 331 331 331 331 332 333 334 335 335 335 335 335 336 337 338 338 338 338 338 338 338 338 338 339 339 338 338 337 335 334 333 332 330 329 327 326 324 323 322 321 320 319 319 318 319 318 318 318 318 317 316 315 314 314 313 312 312 311 310 310 309 308 308 307 306 305 304 303
313 310 308 309 311 314 316 319 320 321 322 323 325 326 329 330 332 332 332 333 334 335 337 337 338 338 337 337 338 339 340 341 342 343 344 344 344 344 344 344 345 345 345 344 343 342 341 340 339 337 336 334 333 331 330 329 328 327 327 326 326 326 326 326 326 325 324 322 321 319 318 317 316 316 315 314 314 313 312 312 311 311 310 309 308 307 306
313 310 311 314 317 319 321 323 324 324 325 327 329 331 332 333 333 334 336 338 340 340 340 339 338 339 340 341 342 344 345 347 347 349 349 349 350 350 350 351 351 350 349 348 346 345 344 343 341 340 339 339 338 338 337 336 335 335 334 334 333 332 331 330 328 326 324 323 321 320 319 319 318 317 317 316 315 314 313 313 312 311 310 309 308 308 307
312 314 317 319 321 323 324 325 326 327 329 331 332 333 334 335 338 341 342 342 341 341 340 340 342 343 345 346 348 350 351 352 353 354 354 354 355 355 355 355 354 353 351 350 349 348 347 346 345 345 345 344 344 344 343 342 341 340 339 337 336 335 333 330 328 327 326 325 324 323 322 322 321 320 319 318 318 318 317 315 314 313 313 312 311 310 309
316 319 321 323 325 326 327 328 330 331 333 334 334 335 338 341 344 345 343 342 341 342 344 345 347 349 350 352 354 355 356 356 357 358 358 358 358 358 357 356 355 354 353 352 352 351 351 350 350 349 349 349 348 347 346 345 344 343 341 340 338 336 333 331 331 330 329 328 327 326 326 325 325 324 323 322 322 323 323 321 319 318 317 316 315 314 312
321 323 325 327 328 329 330 331 333 334 334 335 337 341 344 346 346 344 343 344 346 348 350 351 352 354 357 358 359 359 359 359 360 0 0 360 359 358 357 355 354 354 354 354 354 354 353 353 353 353 353 352 352 351 350 350 349 347 346 344 342 339 338 337 336 335 334 332 332 331 331 331 330 329 328 327 327 328 329 327 326 323 321 320 319 318 316
324 326 327 328 330 332 333 333 334 334 335 339 343 346 347 347 345 345 347 350 352 354 355 356 357 360 1 1 0 0 1 1 1 1 0 360 359 357 356 355 354 354 355 356 356 356 356 356 356 355 355 355 355 354 354 354 353 351 350 348 347 345 344 343 342 340 340 339 337 336 336 336 335 335 334 333 331 333 335 333 331 328 326 324 323 322 321
326 328 329 331 333 333 333 333 334 336 340 344 347 347 347 347 348 350 354 356 357 358 359 359 1 4 3 2 1 1 1 1 1 1 360 359 357 356 355 355 355 355 356 357 357 357 358 358 358 358 357 357 357 356 356 356 355 355 354 353 352 350 348 348 347 346 345 344 343 341 340 340 341 340 340 338 337 337 339 337 334 333 332 330 328 327 325
327 330 332 334 333 333 334 335 337 341 345 347 347 348 350 350 353 357 360 0 0 1 2 3 4 5 3 1 1 2 2 1 0 359 358 357 356 356 356 356 356 357 357 358 358 359 359 359 360 360 359 359 358 358 358 358 358 357 357 356 355 354 352 351 350 349 348 347 346 345 344 344 345 344 344 344 342 341 341 341 340 339 338 335 333 330 328
329 332 334 333 333 333 335 336 341 346 347 347 349 351 353 355 359 2 2 2 3 3 4 4 5 4 2 1 1 1 0 359 358 357 356 356 355 356 356 356 357 357 358 359 359 360 0 0 0 0 0 360 360 360 360 359 359 359 359 358 356 355 355 353 352 351 351 350 349 349 348 348 348 348 348 348 348 346 345 345 344 342 341 339 337 335 333
332 334 333 333 333 333 335 340 345 346 347 349 353 355 357 0 3 4 3 3 4 5 5 5 4 3 2 1 1 0 359 357 356 356 355 355 355 356 357 357 358 358 359 359 0 1 1 1 1 1 1 1 1 1 1 0 0 0 360 359 358 357 356 355 354 354 353 353 352 352 352 351 352 352 352 352 351 349 347 347 347 346 344 343 342 340 337
333 333 333 334 334 334 339 344 346 346 348 352 355 357 0 3 4 4 4 4 5 5 5 4 3 2 2 1 0 359 357 356 355 355 355 355 356 357 358 358 359 360 360 0 1 1 1 1 1 1 1 1 1 1 1 1 1 1 1 -0 359 358 357 357 356 355 355 355 354 354 354 354 354 354 354 353 353 353 351 350 349 349 347 346 345 343 341
332 333 334 334 334 337 342 345 346 347 351 353 356 359 3 4 4 4 4 5 5 6 4 3 2 2 1 0 359 358 356 356 355 355 356 357 358 358 359 360 0 1 1 1 1 2 2 2 2 2 2 2 2 2 3 3 3 3 2 2 0 359 359 358 357 357 356 356 356 356 356 356 356 355 355 355 354 354 354 352 351 350 349 348 347 345 343
332 334 334 333 335 341 343 344 346 349 351 354 357 0 3 4 3 4 4 4 5 5 3 2 2 1 0 360 359 357 356 356 356 357 358 359 360 360 0 1 2 2 2 3 3 3 3 2 2 3 3 3 3 4 4 4 4 4 4 3 2 1 0 359 359 358 358 358 358 358 357 357 356 356 356 356 355 355 355 354 353 352 351 350 349 347 345
334 335 333 334 339 343 344 345 347 349 351 354 357 360 2 2 2 3 3 3 5 4 3 2 1 1 0 360 358 357 357 358 359 1 1 2 1 1 2 3 3 3 3 4 4 4 4 4 4 4 4 4 4 5 5 6 6 6 5 5 4 3 2 1 0 359 359 359 359 358 358 357 357 357 357 356 356 356 356 355 354 354 353 351 350 349 347
335 334 334 338 342 343 344 345 346 348 351 354 356 359 0 359 0 1 1 2 4 3 1 1 1 1 0 359 358 358 360 2 3 3 3 3 3 3 4 4 4 4 5 6 6 6 5 5 5 5 5 5 5 6 6 7 7 7 7 6 5 4 3 2 1 1 360 359 359 359 359 359 358 358 358 357 357 356 356 356 355 354 354 353 352 350 349
335 333 336 340 342 342 343 344 345 348 351 353 355 357 357 356 358 359 359 0 2 0 359 0 1 0 360 359 360 2 4 5 6 5 5 5 5 5 5 5 5 6 7 7 7 7 7 7 7 7 7 7 7 7 7 8 8 8 7 7 6 5 4 3 2 2 1 0 360 359 359 359 359 358 358 358 358 357 356 356 356 355 355 354 353 352 351
334 334 338 341 341 342 343 343 346 350 352 353 354 354 353 354 356 356 356 358 359 358 358 359 360 359 360 0 2 5 7 7 6 5 5 5 6 6 6 6 7 8 8 9 9 9 10 10 10 9 9 9 8 9 9 9 9 8 8 8 7 6 5 4 3 2 1 1 1 360 359 359 359 358 358 358 358 358 357 357 357 357 356 356 355 354 353
333 336 339 340 341 342 344 346 349 352 352 353 352 351 350 353 353 352 353 356 356 355 356 358 359 359 0 2 5 7 7 7 6 6 5 6 6 6 7 7 8 8 9 10 10 11 12 12 12 12 12 11 11 10 10 10 10 9 9 8 8 7 6 5 4 3 2 1 1 0 359 358 359 359 359 358 358 358 358 357 357 357 357 356 356 355 354
334 338 340 340 341 343 345 348 350 351 351 351 350 350 352 353 351 350 352 354 352 352 355 357 358 359 1 4 6 7 6 6 6 5 5 5 5 6 7 8 8 8 9 10 11 12 13 14 14 14 14 14 13 12 12 11 10 10 9 9 8 7 7 6 5 4 3 2 1 1 360 359 359 359 359 359 359 359 359 358 357 357 357 357 356 356 356
335 338 338 340 341 344 346 348 350 350 351 351 352 353 354 352 349 349 351 351 350 352 355 356 357 359 2 4 6 6 6 6 5 5 4 4 5 6 7 7 8 8 10 11 11 12 13 14 15 15 15 15 15 14 13 12 12 11 10 9 9 8 7 7 6 4 3 2 1 1 1 360 359 359 359 359 359 359 359 358 358 357 357 357 357 357 357
335 336 338 340 342 345 347 349 351 352 353 354 354 354 352 349 348 349 350 350 351 353 354 355 356 359 2 4 5 6 6 5 5 5 4 4 5 5 6 7 7 8 9 10 11 12 13 13 14 15 15 15 14 14 13 13 12 12 10 10 9 8 7 7 7 5 4 3 1 1 1 360 359 359 358 358 359 359 358 358 358 357 357 357 357 357 357
333 334 337 340 343 346 349 351 353 354 355 355 354 352 350 349 350 351 351 351 352 352 352 354 356 359 2 4 4 5 5 5 5 4 4 4 4 5 6 6 7 8 9 10 10 11 12 12 13 13 13 13 13 13 13 12 12 12 11 10 9 9 8 7 7 6 5 4 2 1 0 360 359 359 358 358 358 358 358 358 358 358 357 357 358 357 357
330 332 337 340 344 349 352 353 354 354 355 354 352 351 351 352 352 352 352 352 351 350 352 354 357 359 1 2 3 3 4 5 5 4 3 3 4 4 5 6 7 7 8 9 9 10 11 11 11 12 11 11 11 11 11 11 11 11 11 10 10 9 8 7 7 6 5 4 3 2 1 360 359 359 359 358 358 358 358 358 358 358 357 357 358 358 357
328 331 337 341 346 351 353 353 354 354 353 353 352 353 354 353 353 352 351 350 350 351 352 355 356 358 359 359 0 2 2 3 4 3 3 3 3 4 5 5 6 7 7 8 8 9 10 10 10 10 10 10 10 10 10 10 10 10 10 10 9 9 9 8 7 6 6 5 4 2 1 0 360 359 359 358 358 358 358 358 358 357 357 357 358 358 357
326 332 338 344 348 352 353 353 353 352 353 353 353 354 354 353 352 351 350 350 351 352 353 354 355 356 357 357 358 358 359 0 1 2 2 2 3 3 4 4 5 6 6 7 7 8 9 9 9 9 9 9 9 9 9 9 9 8 9 9 9 9 8 8 7 6 6 5 4 3 2 1 360 359 359 358 358 358 358 358 358 358 358 358 358 358 358
325 332 340 346 349 351 351 351 351 352 353 353 354 354 353 352 350 350 351 351 352 352 352 353 354 355 356 356 355 355 355 356 358 360 1 1 2 2 2 3 3 4 5 6 6 7 7 8 8 9 9 9 8 8 8 8 8 8 8 8 8 8 8 8 7 6 6 5 4 3 2 1 0 360 359 358 358 358 358 358 358 358 358 358 358 358 358
323 333 341 346 347 348 348 348 350 351 351 351 353 353 351 350 350 350 351 352 352 352 352 352 353 355 355 355 354 354 353 354 356 357 359 360 0 0 1 1 2 3 3 4 5 5 6 6 7 8 8 8 8 7 7 7 7 7 7 7 7 7 7 7 7 6 5 5 4 4 3 2 1 360 359 359 358 358 358 358 358 358 358 358 358 358 358
323 333 339 343 343 344 345 346 347 348 347 348 349 349 348 349 350 351 351 351 352 352 352 352 352 354 354 354 354 354 353 353 354 355 356 357 358 359 359 360 0 1 1 2 3 3 4 5 5 6 6 6 6 6 6 6 6 6 6 6 6 6 7 6 6 6 6 5 4 4 3 2 1 360 359 359 359 358 358 358 358 358 358 358 358 358 358
321 330 336 338 339 340 342 343 344 344 343 345 346 346 348 351 352 351 352 353 353 353 352 352 352 353 353 354 354 353 352 352 352 353 354 355 356 357 358 358 359 359 360 0 1 1 2 3 3 4 3 3 4 4 4 4 4 4 4 5 5 5 6 6 6 6 6 5 4 4 3 2 1 0 359 359 359 359 358 358 358 358 358 358 358 358 358
319 326 331 333 335 337 339 340 340 340 342 345 346 347 349 351 352 352 353 353 353 353 353 353 353 352 352 351 351 351 351 352 352 351 352 352 353 354 355 356 357 358 358 359 359 359 360 1 1 2 2 1 2 2 2 3 3 3 3 4 4 4 5 5 5 5 5 5 4 4 3 2 1 0 360 359 359 359 359 359 359 358 358 358 358 358 358
314 321 326 328 331 334 336 337 338 340 342 345 346 347 349 350 351 352 353 353 353 353 353 352 352 351 350 349 349 349 350 351 352 351 351 351 351 352 353 354 355 356 357 357 358 358 358 359 360 360 0 0 0 0 1 1 1 2 2 2 3 3 4 4 4 4 4 4 4 4 3 2 1 0 360 359 359 359 359 359 359 358 358 358 358 358 358
308 316 321 324 328 331 333 335 337 340 342 344 345 347 348 349 350 352 353 352 353 352 352 352 351 350 349 349 349 349 350 351 351 351 351 350 350 350 351 351 352 353 354 355 356 356 357 357 358 358 359 359 359 359 360 360 0 1 1 1 2 2 3 3 4 4 4 4 4 3 3 2 1 0 360 359 359 359 359 359 359 359 358 358 358 358 358
303 311 316 320 324 328 330 333 336 339 341 343 344 346 347 348 349 350 351 351 351 351 351 351 350 350 349 349 349 349 349 350 350 350 350 350 349 349 349 350 350 351 352 353 354 355 355 356 356 357 357 358 358 359 359 359 359 360 360 0 1 1 2 2 3 3 3 3 3 3 3 2 1 1 360 359 359 359 359 359 359 359 358 358 358 358 358
297 305 311 316 320 325 328 331 334 337 339 341 342 344 345 346 347 348 349 349 350 350 349 349 349 349 349 349 348 348 348 348 349 349 349 349 349 349 349 349 349 349 349 350 351 353 354 354 355 355 356 356 357 357 358 358 358 359 359 359 360 0 1 1 2 2 2 2 2 2 2 2 1 1 360 359 359 359 359 359 359 359 358 358 358 358 358
291 299 306 312 317 321 326 329 333 335 337 339 340 341 343 344 345 346 347 347 348 348 347 347 348 348 348 348 347 347 347 347 348 348 349 349 349 348 349 349 349 348 348 348 349 350 352 353 353 354 355 355 355 356 357 357 357 358 358 359 359 359 360 0 1 1 2 2 2 2 2 2 1 0 360 359 359 358 358 358 359 358 358 358 358 358 358
285 293 300 307 312 317 322 326 330 333 335 336 338 339 340 341 342 343 344 345 345 346 346 346 346 346 346 346 347 347 347 347 347 347 348 348 348 347 348 348 349 348 348 347 347 348 350 351 351 352 353 354 354 355 355 355 356 357 357 358 358 358 359 359 360 0 1 1 1 1 1 1 1 0 360 359 359 358 358 358 358 358 358 357 357 358 358
280 288 295 302 307 313 318 323 327 330 332 334 335 337 338 339 340 340 341 342 343 343 344 345 345 345 345 345 346 346 346 346 346 346 347 347 347 347 346 347 348 349 348 347 347 347 348 349 350 351 352 353 353 354 354 354 355 356 356 357 357 357 358 358 359 359 360 0 0 0 0 1 0 360 359 359 358 358 358 357 358 358 358 357 357 357 358
277 285 291 298 303 309 314 319 324 327 329 331 333 334 335 336 337 338 339 340 341 342 342 343 343 343 343 343 344 345 345 345 345 345 345 346 346 346 346 346 347 348 348 348 347 346 346 348 349 350 351 352 353 353 353 354 354 355 355 355 356 357 357 357 358 358 359 359 360 360 360 360 -0 360 359 359 358 358 357 357 357 358 357 357 357 357 357
276 282 288 294 300 305 310 315 319 323 325 327 329 331 332 333 334 335 336 337 338 339 340 340 340 341 341 342 343 344 344 344 344 344 344 345 345 345 345 345 346 347 348 348 347 347 346 347 347 349 350 351 352 352 353 353 353 354 354 355 355 356 356 356 357 357 358 358 359 359 359 359 360 359 359 358 358 357 357 357 357 357 357 357 356 356 357
274 280 285 291 296 301 306 311 315 319 322 324 326 328 329 330 331 333 334 335 336 337 338 338 339 339 340 340 342 342 343 343 343 343 344 344 345 345 344 344 345 346 347 348 347 347 347 347 347 347 349 350 351 352 352 352 353 353 353 354 354 355 355 356 356 356 357 357 358 358 358 359 359 359 359 358 358 357 357 356 356 357 357 357 356 356 356
273 277 283 287 292 297 303 308 312 315 319 321 323 325 326 327 328 330 332 332 333 334 335 336 337 337 338 339 340 341 342 342 343 343 343 343 344 344 344 344 344 345 346 347 347 347 347 347 346 346 347 349 350 351 351 352 352 352 353 353 353 354 354 355 355 356 356 357 357 357 358 358 358 358 358 358 357 357 356 356 356 356 357 356 356 356 356
271 276 280 285 290 295 300 304 309 312 316 318 320 322 323 325 326 328 329 330 331 333 334 335 336 336 337 338 339 340 341 341 342 342 342 342 343 343 343 344 344 345 345 346 347 346 346 347 346 346 346 347 349 350 351 351 352 352 352 352 353 353 354 354 354 355 355 356 356 357 357 357 357 358 358 357 357 357 356 356 355 356 356 356 356 355 355
271 275 279 284 288 293 297 302 306 309 313 315 317 319 321 323 324 326 327 329 330 331 332 333 334 335 336 337 337 339 340 341 341 342 342 341 342 342 343 343 344 345 345 346 346 346 346 346 346 346 346 346 347 349 350 350 351 351 351 352 352 352 353 353 354 354 354 355 356 356 356 356 356 357 357 357 357 356 356 355 355 355 355 355 355 355 355
271 275 278 283 287 291 296 300 304 307 310 313 315 317 319 320 322 323 326 327 329 330 331 332 333 334 335 336 337 338 339 340 341 342 342 341 341 342 342 342 344 345 345 345 345 346 345 345 345 346 346 346 347 348 349 349 350 351 351 351 351 352 352 353 353 353 354 354 355 355 355 355 356 356 356 357 356 356 355 355 354 354 354 355 355 354 354
271 275 278 282 286 290 294 298 302 305 309 311 313 315 317 318 320 322 324 326 327 328 329 331 332 333 334 335 336 337 338 339 340 341 342 341 341 341 341 342 342 344 344 344 345 345 345 345 345 346 346 346 346 347 348 348 349 349 350 350 350 351 351 352 352 353 353 353 354 354 354 355 355 355 355 356 356 355 355 354 354 353 354 354 354 354 354
272 275 279 282 286 289 293 297 301 304 307 309 311 313 315 316 318 320 322 324 326 327 328 329 331 332 333 334 335 336 337 338 339 339 341 341 340 341 341 341 341 342 343 344 344 345 345 345 345 346 346 346 346 346 347 347 348 348 349 349 350 350 351 351 351 352 352 352 353 354 354 354 354 354 354 355 355 355 354 354 353 353 353 353 353 353 353
273 276 279 283 286 290 293 297 300 303 306 308 310 311 313 314 316 319 321 323 324 325 326 327 329 331 332 333 334 335 336 337 338 338 339 340 340 340 341 341 341 341 342 343 343 344 344 344 345 345 345 346 346 346 346 347 347 347 348 348 349 349 350 350 351 351 351 352 352 353 353 353 353 353 354 354 354 354 354 353 353 352 352 352 352 353 353
275 277 280 283 286 290 293 296 299 302 304 306 308 309 311 313 315 318 320 321 323 324 325 326 327 329 331 333 334 335 335 336 337 337 338 339 340 340 340 340 340 340 341 341 342 343 344 344 344 344 345 345 345 346 346 346 346 346 347 347 348 348 349 349 350 350 351 351 351 352 352 352 352 352 353 353 353 353 353 353 352 352 351 351 351 352 352
276 279 281 283 286 289 292 295 298 300 303 305 307 308 310 312 314 316 318 320 321 322 324 324 326 328 330 332 333 334 335 335 336 336 337 338 340 340 340 340 340 340 340 341 341 342 343 343 343 344 344 344 344 345 345 345 346 346 346 346 347 347 348 348 349 349 350 350 351 351 351 351 351 352 352 352 352 353 353 352 352 351 351 350 350 351 351
277 279 281 283 286 288 291 294 296 299 301 304 306 307 309 311 313 315 317 318 319 321 322 323 324 326 329 331 332 333 334 335 336 336 337 338 339 340 341 341 341 341 342 342 342 342 343 343 343 344 344 344 344 344 344 344 345 345 345 345 346 346 347 347 348 348 349 349 350 350 350 351 351 351 351 351 352 352 352 351 351 351 350 350 350 350 350
276 279 281 284 285 288 291 293 296 299 301 303 305 306 308 310 312 314 316 317 318 320 321 322 322 324 328 330 331 332 334 336 336 336 337 338 340 341 341 342 342 342 343 343 343 343 344 344 344 344 344 344 344 344 344 344 344 344 344 344 345 345 346 346 347 348 348 349 349 349 350 350 350 350 350 351 351 351 351 351 350 350 350 349 349 349 349
Height
10648 10646 10644 10641 10639 10637 10634 10631 10628 10625 10622 10619 10616 10613 10610 10606 10603 10600 10597 10593 10590 10587 10584 10580 10576 10573 10569 10566 10563 10559 10556 10552 10549 10545 10542 10538 10534 10530 10525 10520 10515 10510 10504 10499 10493 10487 10481 10475 10469 10463 10457 10452 10446 10440 10434 10429 10423 10418 10412 10407 10401 10395 10390 10385 10379 10372 10366 10360 10354 10348 10342 10335 10330 10324 10318 10311 10305 10299 10292 10284 10279 10273 10266 10259 10252 10247 10244
10645 10643 10641 10639 10636 10634 10631 10629 10626 10623 10620 10617 10614 10611 10607 10604 10601 10598 10595 10592 10588 10585 10581 10578 10574 10571 10567 10564 10560 10557 10554 10550 10547 10543 10540 10536 10531 10527 10522 10517 10511 10506 10500 10494 10488 10482 10476 10470 10465 10459 10453 10448 10442 10436 10431 10425 10419 10414 10408 10402 10396 10391 10385 10379 10374 10368 10362 10357 10351 10344 10338 10331 10324 10318 10311 10305 10298 10291 10284 10277 10270 10264 10257 10249 10243 10237 10231
10642 10640 10638 10636 10634 10631 10629 10626 10623 10620 10617 10614 10611 10608 10605 10603 10600 10597 10593 10590 10586 10583 10579 10576 10572 10569 10566 10562 10559 10555 10552 10549 10545 10541 10537 10533 10529 10524 10519 10513 10508 10502 10496 10491 10485 10479 10473 10468 10462 10456 10450 10444 10438 10432 10426 10420 10414 10409 10403 10397 10391 10385 10380 10374 10369 10364 10358 10353 10346 10340 10333 10325 10318 10311 10303 10297 10291 10284 10277 10269 10262 10256 10249 10241 10235 10228 10221
10640 10638 10636 10634 10631 10629 10626 10624 10621 10618 10615 10612 10609 10607 10604 10601 10598 10595 10591 10588 10584 10581 10578 10574 10571 10567 10564 10561 10557 10554 10550 10547 10543 10539 10535 10531 10526 10521 10515 10510 10505 10500 10495 10490 10484 10478 10471 10465 10459 10453 10446 10440 10434 10428 10422 10416 10410 10404 10399 10393 10387 10381 10376 10371 10365 10359 10353 10346 10339 10333 10326 10319 10311 10304 10296 10289 10283 10277 10269 10261 10253 10247 10240 10231 10224 10219 10212
10638 10636 10634 10631 10629 10627 10624 10621 10619 10616 10613 10611 10608 10605 10602 10599 10596 10593 10590 10587 10583 10580 10577 10573 10569 10566 10563 10559 10556 10552 10549 10545 10541 10537 10533 10528 10523 10518 10513 10509 10504 10500 10494 10489 10482 10476 10470 10464 10457 10451 10444 10438 10432 10426 10420 10414 10408 10402 10396 10390 10385 10379 10374 10368 10361 10355 10348 10341 10335 10328 10321 10314 10306 10298 10290 10282 10277 10271 10263 10254 10245 10237 10232 10224 10216 10209 10204
10636 10634 10631 10629 10627 10624 10622 10619 10616 10614 10612 10610 10607 10604 10601 10598 10595 10592 10589 10585 10582 10579 10575 10572 10568 10565 10561 10557 10554 10550 10547 10543 10539 10535 10531 10526 10521 10517 10513 10508 10504 10499 10493 10487 10481 10475 10469 10463 10456 10450 10443 10437 10431 10424 10418 10412 10406 10400 10394 10388 10382 10377 10371 10364 10357 10351 10345 10338 10331 10324 10317 10310 10302 10293 10285 10276 10270 10266 10259 10249 10240 10230 10223 10217 10210 10201 10194
10634 10632 10630 10628 10625 10622 10620 10617 10615 10613 10611 10608 10606 10603 10600 10597 10594 10591 10588 10584 10581 10577 10574 10570 10566 10563 10559 10556 10553 10549 10545 10541 10537 10533 10529 10524 10520 10516 10512 10508 10502 10497 10491 10485 10479 10473 10467 10461 10454 10448 10442 10435 10429 10423 10416 10410 10404 10398 10392 10385 10379 10373 10367 10361 10355 10348 10341 10334 10328 10321 10314 10307 10298 10290 10281 10271 10263 10259 10254 10246 10237 10228 10218 10210 10203 10196 10188
10632 10630 10628 10626 10623 10621 10618 10616 10614 10612 10610 10607 10604 10602 10599 10596 10593 10590 10587 10583 10579 10576 10572 10569 10565 10561 10558 10555 10552 10548 10544 10540 10535 10531 10527 10523 10520 10516 10511 10506 10501 10495 10489 10483 10478 10471 10465 10459 10452 10446 10439 10433 10427 10420 10414 10407 10401 10395 10388 10382 10376 10369 10363 10357 10351 10345 10338 10331 10324 10317 10310 10302 10294 10286 10277 10267 10257 10251 10248 10240 10232 10224 10215 10205 10197 10190 10182
10630 10628 10626 10624 10622 10619 10617 10615 10613 10611 10608 10606 10603 10601 10598 10595 10592 10589 10585 10582 10578 10575 10571 10567 10564 10561 10557 10554 10551 10546 10542 10538 10534 10530 10527 10523 10519 10514 10509 10504 10499 10493 10487 10482 10476 10469 10463 10456 10450 10443 10437 10431 10424 10418 10411 10405 10398 10391 10385 10378 10372 10366 10359 10352 10346 10341 10335 10328 10321 10314 10306 10298 10291 10283 10273 10263 10252 10243 10239 10232 10224 10216 10209 10200 10193 10184 10176
10629 10627 10625 10622 10620 10619 10617 10615 10612 10610 10608 10605 10602 10600 10597 10594 10590 10587 10584 10580 10577 10574 10570 10567 10563 10560 10557 10553 10549 10545 10541 10537 10534 10530 10526 10521 10517 10512 10507 10502 10496 10491 10486 10480 10474 10467 10461 10454 10448 10441 10435 10428 10422 10416 10409 10403 10396 10389 10383 10376 10370 10363 10357 10350 10343 10336 10330 10323 10317 10310 10302 10295 10287 10279 10269 10260 10249 10238 10230 10224 10216 10209 10202 10194 10186 10178 10170
10627 10625 10623 10621 10620 10618 10616 10614 10612 10609 10607 10604 10601 10599 10596 10593 10589 10586 10583 10580 10577 10573 10569 10566 10563 10559 10556 10552 10548 10544 10540 10537 10533 10529 10524 10520 10515 10510 10505 10500 10495 10489 10484 10478 10472 10465 10459 10452 10446 10439 10433 10426 10420 10414 10408 10401 10395 10388 10382 10375 10368 10362 10355 10348 10341 10334 10326 10319 10311 10304 10298 10290 10282 10274 10265 10257 10248 10236 10226 10219 10211 10203 10194 10187 10179 10172 10164
10626 10624 10622 10621 10619 10617 10615 10613 10611 10608 10606 10603 10601 10598 10595 10592 10589 10586 10583 10579 10576 10572 10569 10566 10562 10559 10555 10551 10547 10543 10540 10536 10532 10527 10523 10518 10514 10509 10504 10499 10493 10488 10482 10476 10470 10463 10457 10450 10444 10437 10431 10425 10418 10412 10406 10399 10392 10386 10380 10373 10367 10360 10353 10346 10339 10332 10324 10317 10309 10302 10294 10285 10277 10270 10263 10255 10247 10236 10225 10215 10207 10200 10191 10182 10174 10166 10158
10625 10623 10622 10620 10618 10616 10614 10612 10610 10607 10605 10602 10600 10597 10594 10592 10589 10586 10582 10579 10575 10572 10569 10565 10562 10558 10554 10550 10547 10543 10539 10535 10530 10526 10522 10517 10513 10508 10503 10498 10492 10487 10481 10475 10468 10462 10455 10448 10442 10436 10429 10423 10417 10410 10404 10397 10390 10384 10377 10371 10364 10357 10350 10343 10336 10329 10322 10314 10306 10298 10289 10281 10274 10267 10260 10252 10245 10237 10227 10215 10205 10197 10187 10179 10171 10162 10154
10624 10622 10621 10619 10618 10616 10613 10611 10609 10606 10604 10602 10599 10596 10594 10591 10588 10585 10582 10579 10575 10572 10569 10565 10561 10558 10554 10550 10546 10542 10538 10534 10530 10525 10521 10516 10511 10507 10502 10497 10491 10486 10480 10474 10467 10460 10454 10447 10441 10434 10428 10422 10416 10409 10402 10395 10388 10380 10373 10366 10359 10352 10346 10339 10332 10325 10318 10310 10302 10293 10286 10279 10271 10263 10255 10247 10239 10231 10223 10213 10202 10193 10183 10175 10167 10159 10150
10623 10621 10620 10619 10617 10615 10612 10610 10607 10605 10603 10601 10598 10596 10593 10590 10588 10585 10582 10578 10575 10571 10568 10565 10561 10557 10553 10549 10545 10541 10537 10533 10529 10525 10520 10516 10511 10506 10501 10496 10490 10485 10479 10472 10466 10459 10453 10446 10440 10433 10427 10420 10414 10407 10400 10392 10385 10377 10370 10362 10355 10348 10340 10334 10327 10319 10312 10305 10298 10291 10283 10275 10267 10258 10250 10242 10233 10225 10217 10208 10199 10190 10181 10171 10162 10153 10145
10622 10621 10619 10618 10616 10614 10611 10609 10607 10605 10602 10600 10598 10595 10592 10590 10587 10584 10581 10578 10574 10571 10568 10564 10561 10557 10553 10549 10545 10541 10536 10532 10528 10524 10520 10515 10510 10505 10500 10495 10489 10484 10478 10471 10465 10459 10452 10445 10439 10432 10425 10418 10411 10404 10397 10390 10382 10375 10367 10360 10353 10345 10338 10330 10322 10315 10307 10299 10292 10285 10278 10270 10261 10254 10246 10237 10228 10220 10212 10205 10196 10187 10178 10168 10158 10149 10140
10621 10620 10619 10617 10615 10613 10611 10609 10607 10604 10602 10599 10597 10594 10592 10589 10586 10583 10581 10577 10574 10571 10568 10564 10560 10556 10552 10549 10544 10540 10536 10531 10527 10523 10518 10514 10509 10504 10499 10494 10488 10482 10476 10470 10464 10458 10451 10444 10438 10431 10424 10417 10409 10402 10395 10387 10380 10372 10365 10358 10350 10342 10335 10327 10319 10312 10304 10296 10287 10279 10272 10265 10257 10249 10241 10233 10223 10214 10206 10198 10190 10180 10171 10162 10153 10144 10134
10621 10619 10618 10616 10614 10612 10610 10608 10606 10604 10601 10599 10596 10594 10591 10589 10586 10583 10580 10577 10573 10570 10567 10563 10559 10556 10552 10548 10544 10539 10535 10531 10527 10523 10518 10513 10508 10503 10498 10493 10487 10481 10475 10469 10463 10456 10450 10443 10436 10429 10422 10415 10408 10401 10393 10386 10379 10371 10364 10356 10348 10340 10333 10325 10317 10310 10302 10294 10286 10276 10268 10261 10254 10245 10235 10227 10219 10210 10199 10190 10181 10172 10163 10155 10146 10137 10127
10620 10619 10617 10615 10613 10611 10609 10607 10605 10603 10600 10598 10596 10594 10591 10588 10585 10582 10579 10575 10572 10569 10566 10562 10559 10555 10551 10547 10543 10539 10535 10531 10526 10522 10517 10512 10507 10502 10497 10492 10486 10480 10474 10468 10462 10455 10448 10441 10434 10428 10421 10414 10406 10399 10392 10384 10377 10370 10362 10355 10348 10340 10332 10324 10316 10308 10300 10292 10284 10276 10267 10258 10250 10241 10231 10221 10212 10203 10192 10182 10174 10166 10157 10148 10139 10130 10120
10619 10618 10616 10614 10613 10611 10609 10607 10605 10602 10600 10598 10596 10593 10590 10587 10584 10581 10578 10575 10572 10569 10565 10562 10558 10555 10551 10547 10543 10539 10535 10530 10526 10521 10516 10511 10507 10501 10496 10490 10485 10479 10473 10467 10460 10454 10447 10440 10433 10426 10419 10412 10405 10398 10390 10383 10376 10368 10361 10353 10345 10338 10330 10322 10314 10306 10298 10290 10282 10275 10266 10255 10245 10237 10229 10219 10209 10199 10189 10179 10170 10162 10153 10144 10135 10126 10115
10619 10618 10616 10614 10612 10610 10608 10606 10604 10602 10600 10597 10595 10592 10589 10586 10584 10581 10578 10575 10572 10569 10565 10561 10558 10555 10551 10547 10543 10538 10534 10530 10525 10520 10515 10510 10505 10500 10494 10489 10483 10477 10471 10465 10459 10452 10446 10439 10432 10425 10418 10411 10404 10397 10390 10383 10375 10367 10359 10351 10343 10335 10327 10319 10310 10301 10293 10285 10276 10268 10259 10249 10239 10230 10222 10213 10205 10196 10187 10178 10168 10158 10150 10141 10131 10122 10112
10618 10617 10615 10614 10612 10610 10608 10606 10603 10601 10598 10596 10593 10590 10588 10586 10583 10581 10578 10575 10571 10568 10565 10562 10558 10554 10550 10546 10542 10538 10533 10529 10524 10519 10514 10509 10504 10498 10493 10487 10481 10476 10470 10463 10457 10450 10444 10437 10430 10423 10417 10410 10403 10396 10388 10381 10374 10366 10358 10349 10341 10333 10324 10316 10307 10297 10288 10278 10269 10261 10253 10245 10237 10227 10217 10208 10200 10191 10182 10173 10164 10155 10146 10137 10127 10118 10108
10617 10616 10615 10613 10611 10609 10607 10605 10603 10600 10598 10595 10593 10591 10588 10586 10583 10580 10577 10573 10570 10567 10564 10561 10557 10553 10549 10545 10541 10537 10532 10528 10523 10518 10513 10508 10502 10497 10492 10486 10480 10474 10468 10461 10455 10448 10442 10435 10428 10422 10415 10408 10402 10395 10388 10380 10373 10365 10357 10348 10340 10332 10323 10314 10306 10297 10288 10278 10269 10259 10251 10243 10235 10226 10216 10206 10196 10188 10179 10170 10161 10152 10143 10134 10125 10115 10105
10617 10616 10614 10612 10611 10609 10607 10605 10602 10600 10598 10595 10593 10590 10587 10584 10581 10578 10575 10572 10569 10567 10563 10560 10556 10552 10548 10544 10540 10536 10531 10527 10522 10517 10512 10507 10501 10496 10490 10484 10479 10472 10466 10460 10453 10447 10440 10434 10427 10421 10414 10407 10400 10394 10387 10380 10372 10365 10357 10349 10340 10331 10322 10313 10304 10296 10287 10278 10269 10259 10250 10240 10231 10222 10214 10204 10195 10185 10176 10167 10158 10149 10140 10130 10121 10112 10103
10616 10615 10613 10611 10610 10608 10606 10604 10602 10599 10597 10594 10592 10589 10585 10583 10580 10577 10574 10571 10569 10565 10562 10558 10554 10550 10546 10542 10538 10534 10530 10525 10521 10516 10510 10505 10499 10494 10488 10482 10477 10471 10464 10458 10452 10446 10439 10433 10427 10420 10413 10406 10399 10392 10385 10378 10370 10363 10355 10348 10339 10330 10322 10313 10303 10295 10286 10276 10266 10256 10247 10237 10228 10218 10209 10201 10193 10184 10175 10166 10156 10146 10137 10128 10118 10108 10099
10615 10614 10612 10610 10608 10607 10605 10603 10601 10598 10596 10593 10590 10587 10585 10582 10579 10576 10573 10570 10567 10563 10560 10556 10552 10549 10545 10541 10537 10532 10528 10524 10519 10514 10509 10504 10498 10492 10487 10481 10476 10470 10464 10458 10452 10445 10439 10433 10426 10419 10412 10405 10398 10391 10384 10376 10369 10361 10353 10345 10337 10329 10320 10311 10302 10293 10285 10276 10267 10258 10248 10238 10228 10219 10208 10199 10190 10181 10173 10164 10154 10144 10134 10125 10116 10107 10096
10614 10613 10611 10609 10608 10606 10604 10602 10600 10597 10594 10592 10589 10586 10584 10581 10578 10575 10572 10568 10565 10562 10558 10555 10551 10547 10543 10539 10535 10531 10527 10522 10518 10513 10508 10502 10497 10491 10486 10481 10475 10469 10463 10457 10451 10445 10438 10432 10425 10418 10411 10404 10397 10390 10382 10375 10367 10359 10351 10342 10334 10326 10317 10309 10300 10290 10282 10273 10264 10255 10245 10235 10225 10216 10207 10197 10188 10178 10169 10160 10151 10141 10132 10122 10113 10104 10094
10613 10612 10610 10609 10607 10605 10603 10601 10599 10596 10594 10591 10589 10586 10583 10581 10577 10574 10571 10567 10564 10561 10557 10553 10549 10545 10541 10538 10533 10529 10525 10520 10516 10511 10506 10501 10496 10491 10485 10480 10474 10468 10462 10456 10450 10444 10438 10431 10424 10417 10411 10404 10396 10389 10381 10373 10365 10357 10349 10341 10332 10323 10314 10305 10296 10287 10277 10268 10259 10250 10241 10231 10221 10211 10202 10193 10184 10174 10165 10156 10147 10138 10128 10119 10109 10099 10089
10613 10611 10609 10608 10606 10605 10603 10600 10598 10596 10594 10591 10589 10586 10584 10580 10577 10573 10570 10566 10563 10559 10555 10552 10548 10544 10540 10536 10532 10527 10523 10519 10514 10510 10505 10500 10495 10490 10484 10478 10472 10467 10461 10455 10449 10443 10436 10429 10423 10416 10409 10403 10396 10388 10380 10372 10364 10356 10348 10339 10330 10322 10312 10303 10294 10285 10274 10265 10255 10246 10237 10228 10218 10208 10199 10190 10180 10171 10162 10153 10144 10135 10125 10115 10105 10095 10085
10612 10610 10609 10607 10605 10604 10602 10600 10597 10595 10593 10591 10588 10585 10582 10579 10575 10572 10568 10565 10561 10557 10554 10550 10546 10542 10538 10534 10530 10526 10522 10517 10513 10508 10504 10499 10494 10488 10483 10477 10471 10466 10460 10453 10447 10441 10435 10428 10421 10414 10407 10401 10394 10387 10380 10372 10363 10355 10346 10337 10329 10320 10311 10302 10293 10284 10274 10264 10254 10244 10235 10225 10216 10206 10196 10186 10177 10168 10159 10149 10140 10131 10121 10112 10102 10092 10082
10610 10609 10608 10606 10604 10603 10601 10599 10596 10594 10592 10589 10586 10583 10580 10577 10574 10571 10567 10563 10560 10556 10552 10548 10544 10540 10536 10533 10529 10525 10521 10516 10512 10507 10502 10497 10493 10487 10481 10476 10470 10464 10458 10452 10445 10439 10433 10426 10420 10413 10406 10399 10392 10385 10378 10371 10363 10354 10346 10337 10328 10319 10310 10301 10291 10282 10273 10264 10254 10243 10233 10223 10214 10205 10195 10185 10175 10166 10156 10147 10137 10127 10118 10109 10099 10089 10079
10609 10608 10606 10605 10603 10601 10599 10597 10595 10593 10590 10588 10585 10582 10579 10576 10573 10569 10566 10562 10559 10555 10551 10548 10544 10540 10536 10532 10528 10524 10519 10514 10510 10504 10499 10494 10490 10485 10479 10474 10468 10462 10457 10450 10444 10437 10431 10425 10418 10412 10405 10398 10390 10383 10376 10368 10361 10353 10344 10336 10327 10317 10308 10299 10290 10280 10271 10262 10253 10243 10233 10223 10213 10203 10194 10184 10174 10164 10154 10144 10135 10125 10116 10106 10097 10086 10076
10608 10607 10605 10604 10602 10600 10598 10596 10594 10591 10589 10586 10583 10581 10578 10575 10571 10568 10564 10561 10558 10554 10550 10547 10543 10540 10536 10531 10527 10522 10517 10512 10507 10502 10497 10492 10487 10482 10477 10471 10465 10460 10454 10448 10443 10436 10430 10423 10417 10410 10403 10397 10389 10381 10373 10366 10358 10350 10342 10334 10325 10316 10307 10297 10288 10279 10269 10259 10250 10241 10232 10222 10212 10202 10191 10181 10171 10161 10151 10142 10132 10123 10113 10104 10094 10084 10074
10606 10605 10604 10602 10601 10599 10597 10595 10592 10590 10587 10584 10582 10579 10576 10573 10570 10566 10563 10559 10556 10552 10549 10545 10541 10537 10533 10529 10524 10520 10515 10511 10506 10500 10495 10490 10485 10480 10474 10469 10463 10458 10452 10446 10441 10435 10428 10422 10415 10409 10402 10395 10388 10380 10372 10365 10357 10349 10340 10332 10323 10314 10305 10295 10285 10276 10267 10257 10248 10238 10229 10219 10209 10199 10189 10178 10168 10158 10148 10139 10129 10120 10110 10101 10091 10081 10071
10605 10604 10602 10601 10599 10597 10595 10593 10591 10588 10586 10583 10580 10577 10575 10572 10568 10565 10562 10558 10554 10550 10547 10543 10539 10535 10530 10526 10522 10518 10513 10509 10504 10499 10494 10488 10483 10477 10472 10466 10461 10455 10449 10444 10438 10432 10426 10419 10413 10407 10400 10393 10386 10379 10371 10363 10355 10347 10338 10330 10321 10312 10303 10293 10284 10274 10265 10255 10246 10236 10226 10217 10206 10196 10186 10176 10166 10156 10146 10136 10127 10117 10107 10098 10088 10079 10069
10603 10602 10601 10599 10597 10596 10594 10591 10589 10586 10584 10581 10579 10576 10573 10570 10567 10563 10560 10556 10553 10549 10545 10541 10537 10533 10529 10524 10520 10515 10511 10506 10502 10497 10492 10486 10481 10475 10470 10464 10458 10453 10447 10441 10435 10429 10423 10417 10410 10404 10398 10390 10383 10376 10368 10361 10353 10345 10336 10327 10318 10309 10300 10291 10282 10272 10263 10253 10244 10234 10224 10214 10204 10194 10184 10173 10164 10154 10144 10134 10124 10115 10105 10095 10085 10076 10066
10601 10600 10599 10597 10596 10594 10592 10590 10587 10585 10582 10579 10577 10574 10571 10568 10564 10561 10558 10554 10551 10547 10543 10539 10535 10531 10527 10522 10517 10512 10508 10504 10499 10494 10490 10485 10479 10474 10468 10463 10457 10451 10445 10439 10433 10427 10421 10414 10407 10400 10394 10387 10380 10372 10365 10358 10350 10342 10333 10324 10315 10306 10297 10288 10280 10270 10261 10251 10242 10232 10222 10211 10201 10191 10181 10171 10160 10150 10140 10131 10121 10112 10102 10092 10082 10073 10063
10599 10598 10597 10595 10594 10592 10590 10588 10586 10583 10580 10578 10575 10572 10569 10565 10562 10559 10556 10552 10548 10544 10540 10536 10532 10528 10523 10519 10515 10510 10505 10501 10496 10492 10487 10483 10477 10472 10466 10461 10455 10450 10444 10437 10431 10425 10419 10412 10406 10398 10391 10385 10377 10370 10362 10354 10346 10338 10329 10321 10313 10304 10295 10286 10277 10268 10259 10250 10240 10230 10220 10210 10199 10188 10178 10168 10157 10147 10137 10128 10118 10108 10099 10089 10079 10069 10060
10597 10596 10595 10593 10592 10590 10588 10586 10584 10581 10578 10576 10573 10570 10567 10563 10560 10556 10553 10550 10546 10542 10538 10534 10530 10526 10522 10517 10513 10508 10503 10498 10493 10489 10484 10480 10475 10469 10464 10458 10452 10447 10441 10435 10429 10423 10417 10411 10404 10398 10390 10383 10375 10368 10359 10351 10343 10335 10327 10319 10310 10301 10292 10283 10274 10265 10256 10247 10237 10228 10218 10208 10198 10187 10176 10165 10155 10144 10134 10125 10115 10105 10095 10085 10075 10066 10056
10595 10594 10592 10591 10589 10588 10586 10583 10581 10579 10576 10574 10571 10568 10565 10561 10558 10555 10551 10547 10544 10540 10536 10532 10528 10524 10520 10516 10511 10506 10501 10496 10491 10486 10481 10476 10471 10465 10460 10454 10449 10444 10438 10433 10427 10421 10415 10408 10401 10395 10388 10381 10374 10366 10357 10349 10341 10333 10325 10316 10308 10299 10290 10281 10272 10263 10254 10244 10234 10225 10215 10205 10195 10184 10174 10163 10153 10142 10132 10122 10112 10103 10093 10082 10072 10062 10053
10593 10591 10590 10589 10587 10585 10583 10581 10579 10577 10574 10571 10568 10565 10562 10559 10556 10553 10549 10545 10542 10538 10535 10530 10526 10521 10517 10513 10509 10505 10500 10494 10489 10484 10479 10474 10468 10462 10457 10451 10446 10440 10435 10429 10423 10418 10412 10405 10398 10391 10385 10378 10371 10363 10355 10347 10339 10331 10322 10314 10305 10297 10288 10279 10269 10260 10251 10241 10232 10222 10212 10202 10192 10182 10171 10160 10150 10140 10130 10119 10110 10100 10091 10080 10070 10060 10050
10590 10589 10588 10586 10584 10582 10580 10578 10576 10574 10571 10569 10566 10563 10560 10557 10554 10551 10547 10544 10540 10536 10532 10528 10524 10520 10515 10511 10506 10502 10498 10493 10487 10482 10477 10472 10467 10461 10455 10449 10442 10436 10431 10425 10418 10413 10407 10402 10395 10388 10381 10375 10368 10361 10353 10345 10336 10328 10320 10311 10303 10294 10285 10276 10267 10257 10248 10239 10229 10219 10209 10200 10190 10179 10169 10158 10147 10137 10127 10117 10107 10098 10088 10078 10068 10058 10047
10587 10586 10585 10583 10582 10580 10578 10576 10574 10571 10569 10566 10563 10560 10557 10554 10551 10548 10544 10541 10538 10534 10529 10525 10521 10516 10512 10507 10503 10498 10494 10490 10485 10479 10474 10469 10464 10459 10454 10448 10441 10434 10427 10421 10415 10408 10402 10397 10391 10384 10378 10371 10364 10357 10350 10342 10334 10325 10317 10308 10300 10291 10282 10273 10264 10255 10245 10236 10226 10217 10207 10197 10187 10177 10167 10156 10145 10135 10125 10115 10105 10095 10086 10076 10066 10056 10045
10584 10583 10582 10580 10579 10577 10575 10573 10571 10569 10566 10564 10561 10557 10554 10551 10547 10544 10541 10537 10534 10530 10526 10522 10518 10513 10509 10504 10499 10495 10490 10486 10481 10476 10470 10464 10459 10454 10449 10445 10439 10432 10425 10419 10413 10406 10400 10394 10388 10382 10375 10367 10360 10353 10345 10337 10329 10321 10313 10304 10296 10287 10279 10270 10261 10252 10243 10233 10224 10214 10204 10194 10184 10175 10165 10154 10143 10132 10122 10112 10102 10093 10083 10074 10064 10053 10043
10581 10580 10579 10577 10576 10574 10572 10570 10568 10566 10563 10560 10558 10555 10551 10548 10544 10541 10538 10534 10530 10526 10522 10518 10514 10509 10505 10500 10495 10491 10486 10481 10477 10472 10467 10460 10454 10449 10444 10440 10435 10430 10423 10417 10411 10405 10398 10391 10384 10378 10371 10363 10355 10348 10340 10332 10324 10316 10309 10300 10292 10284 10275 10266 10257 10248 10239 10230 10221 10211 10202 10192 10182 10172 10162 10152 10141 10130 10120 10110 10100 10090 10081 10072 10062 10051 10041
10578 10577 10576 10574 10572 10571 10569 10567 10565 10562 10560 10557 10554 10551 10548 10545 10541 10538 10535 10531 10527 10523 10519 10515 10510 10506 10501 10496 10491 10487 10482 10477 10472 10468 10463 10457 10451 10445 10440 10435 10430 10426 10421 10414 10408 10401 10394 10386 10379 10373 10366 10358 10350 10343 10336 10328 10320 10313 10305 10297 10288 10280 10271 10263 10254 10245 10236 10227 10218 10208 10199 10189 10179 10169 10159 10150 10139 10128 10117 10107 10097 10087 10078 10069 10060 10049 10039
10575 10573 10572 10571 10569 10567 10566 10564 10562 10559 10556 10554 10551 10548 10544 10541 10537 10534 10531 10528 10524 10520 10515 10511 10507 10502 10498 10493 10488 10482 10478 10473 10467 10463 10459 10454 10448 10442 10436 10430 10424 10419 10415 10410 10403 10396 10389 10382 10375 10368 10361 10354 10346 10339 10332 10324 10316 10309 10301 10293 10284 10276 10268 10259 10251 10242 10233 10224 10215 10205 10196 10186 10177 10166 10156 10147 10137 10126 10115 10104 10094 10084 10075 10066 10057 10047 10036
10571 10570 10569 10567 10565 10563 10562 10560 10558 10556 10553 10550 10546 10543 10540 10537 10534 10530 10526 10523 10520 10516 10512 10508 10504 10499 10495 10490 10485 10479 10474 10469 10463 10458 10454 10450 10445 10439 10433 10427 10420 10414 10408 10404 10398 10392 10385 10378 10371 10363 10356 10349 10342 10335 10328 10320 10313 10305 10297 10289 10281 10272 10264 10256 10247 10239 10230 10220 10211 10202 10193 10183 10173 10163 10153 10143 10133 10123 10113 10102 10092 10081 10072 10062 10053 10044 10034
10567 10566 10565 10564 10562 10560 10558 10556 10553 10551 10549 10546 10543 10539 10536 10533 10530 10526 10523 10519 10516 10512 10508 10503 10500 10496 10492 10487 10482 10477 10471 10465 10460 10455 10450 10446 10440 10434 10427 10421 10415 10409 10403 10398 10393 10387 10381 10374 10366 10359 10351 10344 10338 10330 10323 10316 10309 10301 10293 10285 10277 10269 10261 10252 10244 10235 10227 10217 10208 10199 10189 10180 10170 10160 10150 10140 10130 10120 10110 10100 10089 10078 10068 10059 10050 10041 10031
10563 10562 10561 10560 10558 10556 10554 10552 10549 10547 10544 10542 10539 10535 10531 10528 10525 10522 10518 10515 10511 10508 10504 10499 10495 10492 10488 10484 10479 10474 10469 10462 10456 10451 10446 10441 10436 10430 10423 10416 10410 10404 10397 10391 10385 10380 10375 10369 10362 10355 10348 10340 10333 10326 10318 10311 10304 10297 10289 10281 10273 10265 10257 10249 10240 10232 10223 10214 10204 10195 10186 10176 10166 10157 10147 10136 10126 10116 10106 10096 10086 10075 10065 10055 10046 10037 10028
10559 10557 10556 10555 10554 10552 10550 10547 10545 10543 10540 10537 10534 10531 10527 10524 10521 10517 10514 10510 10506 10503 10499 10495 10490 10487 10484 10481 10476 10471 10466 10460 10453 10447 10441 10437 10432 10426 10419 10412 10405 10399 10393 10386 10379 10374 10369 10363 10357 10351 10344 10337 10329 10322 10314 10306 10300 10293 10285 10277 10269 10262 10253 10245 10237 10228 10220 10211 10201 10192 10183 10173 10163 10153 10143 10133 10123 10112 10102 10092 10083 10073 10062 10052 10042 10033 10024
10555 10553 10551 10550 10550 10548 10546 10543 10541 10538 10535 10532 10530 10526 10523 10519 10516 10512 10509 10505 10501 10498 10494 10490 10485 10481 10478 10475 10471 10466 10462 10457 10451 10443 10437 10432 10427 10422 10415 10408 10401 10395 10389 10383 10376 10370 10365 10359 10352 10346 10339 10333 10325 10318 10311 10303 10295 10289 10282 10274 10266 10258 10250 10241 10233 10225 10216 10207 10198 10189 10179 10170 10160 10150 10140 10130 10120 10110 10099 10089 10079 10070 10059 10049 10039 10030 10021